Погода в Каракане

Россия / Кемеровская область (Кузбасс)     54°23′12″N   86°46′08″E
темп.,
°C
ветер,
м/с
пор.,
м/с
влажн.,
%
обл.,
%
осадки,
мм/ч
давл.,
гПа
погр.,
м
28 февраля, вс
вс2801:00−22ююз3598100 0.1 1040148
04:00−24ю3496100 0.1 104070
07:00−27ююв349491 0.1 104138
10:00−25ююв369574 0.0 1039169
13:00−19ююв469383 0.0 1037276
16:00−14ююв488686 0.0 1033367
19:00−14ююв368793 0.0 1031106
22:00−12юв3896100 0.4 1028305
1 марта, пн
пн101:00−11юв3896100 1.2 1025305
04:00−11юв4995100 0.6 1021298
07:00−9ююв4995100 1.6 1018273
10:00−8ююв51095100 1.4 1015364
13:00−4ююз5895100 2.9 1013655
16:00−3ююз5896100 2.8 1011606
19:00−3ююз51389100 4.7 1009875
22:00−3ююз51490100 0.0 1008774
2 марта, вт
вт201:00−3юз61589100 0.0 1007801
04:00−2юз81591100 0.1 1007747
07:00−3зюз71490100 0.3 1010784
10:00−6з4895100 0.6 1012519
13:00−6з4794100 1.4 1015574
16:00−6з2494100 0.8 1016366
19:00−9зсз2396100 1.4 101797
22:00−12юз0196100 0.4 101824
3 марта, ср
ср301:00−13ююз229798 0.6 101730
04:00−13ююз1296100 0.3 101621
07:00−14юз0197100 0.5 101720
10:00−12ююв119489 0.1 101778
13:00−9ююз128995 0.2 1017315
16:00−8ююв0191100 0.3 1018229
19:00−10ссз1196100 0.4 102021
22:00−10зюз4995100 0.4 1022320
4 марта, чт
чт401:00−12юз4895100 0.7 1025275
04:00−13ю369695 0.1 1026140
07:00−15ю489695 0.3 1027218
10:00−13ююв5991100 0.1 1026297
13:00−9ююв6990100 0.1 1025445
16:00−6ююв6987100 0.0 1023669
19:00−7ююв3587100 0.0 102289
22:00−8ююв3687100 0.0 1020107